This demonstration page uses our WeatherBlox Daily Observations layout. Learn more.

Left ArrowRight Arrow

Hourly Observations for August 31, 2015

Temp ( °F °C ) Dew Point ( °F °C ) Humidity (%) Winds ( mph kmh ) Pressure ( in mb ) Visibility ( mi km ) Precip ( " mm )
12:51 am 00:51 Clear 81 27.2 57 13.9 44 44 ESE 8 13 29.77 1008 10 16 0.00 0.00
1:51 am 01:51 Clear 79 26.1 58 14.4 49 49 SW 5 7 29.78 1009 10 16 0.00 0.00
2:51 am 02:51 Clear 76 24.4 59 15 56 56 Calm 29.80 1009 10 16 0.00 0.00
3:51 am 03:51 Clear 73 22.8 60 15.6 64 64 Calm 29.81 1010 10 16 0.00 0.00
4:51 am 04:51 Clear 72 22.2 61 16.1 68 68 SSE 3 6 29.82 1010 10 16 0.00 0.00
5:51 am 05:51 Clear 72 22.2 61 16.1 68 68 SE 3 6 29.83 1010 10 16 0.00 0.00
6:51 am 06:51 Sunny 74 23.3 61 16.1 64 64 SSE 8 13 29.86 1011 10 16 0.00 0.00
7:51 am 07:51 Sunny 78 25.6 60 15.6 54 54 SE 6 9 29.87 1011 10 16 0.00 0.00
8:51 am 08:51 Sunny 84 28.9 59 15 43 43 W 7 11 29.88 1012 10 16 0.00 0.00
9:51 am 09:51 Sunny 87 30.6 58 14.4 37 37 NW 13 20 29.88 1012 10 16 0.00 0.00
10:51 am 10:51 Sunny 90 32.2 58 14.4 34 34 VRB 7 11 29.85 1011 10 16 0.00 0.00
11:51 am 11:51 Sunny 93 33.9 57 13.9 30 30 W 8 13 29.82 1010 10 16 0.00 0.00
12:51 pm 12:51 Sunny 93 33.9 57 13.9 30 30 W 8 13 29.79 1009 10 16 0.00 0.00
1:51 pm 13:51 Sunny 96 35.6 55 12.8 25 25 VRB 7 11 29.76 1008 10 16 0.00 0.00
2:51 pm 14:51 Sunny 95 35 54 12.2 25 25 SSW 7 11 29.74 1007 10 16 0.00 0.00
3:51 pm 15:51 Sunny 94 34.4 53 11.7 25 25 Calm 29.73 1007 10 16 0.00 0.00
4:16 pm 16:16 Sunny with Thunderstorms 94 34.4 56 13.3 28 28 WNW 9 15 29.65 1004 10 16 0.00 0.00
4:37 pm 16:37 Mostly Cloudy with Nearby Thunderstorms 87 30.6 59 15 39 39 W 14 22 29.68 1005 10 16 0.00 0.00
4:51 pm 16:51 Mostly Cloudy with Nearby Thunderstorms 87 30.6 58 14.4 37 37 VRB 3 6 29.77 1008 10 16 0.00 0.00
5:24 pm 17:24 Cloudy with Thunderstorms 83 28.3 61 16.1 48 48 S 9 15 29.74 1007 10 16 0.00 0.03
5:40 pm 17:40 Cloudy with Strong Thunderstorms 75 23.9 66 18.9 74 74 SSW 35 56 29.83 1010 2 3 0.02 0.51
5:48 pm 17:48 Cloudy with Heavy Rain 75 24 63 17 65 65 S 21 33 29.83 1010 1 1 0.10 2.54
5:51 pm 17:51 Cloudy with Heavy Rain 75 23.9 62 16.7 64 64 S 16 26 29.85 1011 1 2 0.13 3.30
6:08 pm 18:08 Cloudy with Heavy Rain 73 22.8 62 16.7 69 69 ESE 14 22 29.80 1009 3 5 0.19 4.83
6:18 pm 18:18 Cloudy with Heavy Rain 72 22.2 65 18.3 79 79 ENE 14 22 29.80 1009 4 6 0.22 5.59
7:00 pm 19:00 Mostly Clear with Thunderstorms 70 21.1 62 16.7 76 76 S 14 22 29.85 1011 N/A 0.05 1.27
7:14 pm 19:14 Mostly Clear with Nearby Thunderstorms 71 21.7 67 19.4 87 87 SE 12 19 29.83 1010 10 16 0.05 1.27
7:30 pm 19:30 Mostly Cloudy with Light Rain 72 22.2 68 20 87 87 Calm 29.83 1010 10 16 0.06 1.52
7:51 pm 19:51 Partly Cloudy 72 22.2 68 20 87 87 WSW 10 17 29.88 1012 10 16 0.06 1.52
8:49 pm 20:49 Mostly Cloudy with Nearby Thunderstorms 73 23 66 19 78 78 WSW 3 6 29.97 1015 10 16 0.01 0.25
8:51 pm 20:51 Cloudy with Nearby Thunderstorms 73 22.8 66 18.9 79 79 SW 6 9 29.96 1015 10 16 0.01 0.25
9:04 pm 21:04 Mostly Cloudy with Light Rain 73 22.8 68 20 84 84 WNW 5 7 29.97 1015 9 14 0.00 0.03
9:51 pm 21:51 Cloudy with Light Rain 72 22.2 68 20 87 87 N 7 11 29.96 1014 10 16 0.02 0.51

Powered by AerisWeather